Location: Newark
(49.5647°N, 8.2922°E)
Time: 08:18:28
(UTC+00:00)

Transit 2A - Pass Details

Date: 20 February 2020
Orbit: 597 x 962 km, 66.7° (Epoch: 08 April)

Event Time Altitude Azimuth Distance (km) Brightness Sun altitude
Rises 13:21:18 0° 211° (SSW) 2,830 10.3 25.5°
Reaches altitude 10° 13:23:31 10° 211° (SSW) 1,927 10.0 25.4°
Maximum altitude 13:27:47 81° 125° (SE) 616 6.0 25.0°
Drops below altitude 10° 13:32:15 10° 38° (NE) 2,001 7.7 24.7°
Sets 13:34:35 0° 37° (NE) 2,950 8.5 24.5°
